Regional Weather Roundup
Issued by NWS

Home | Current Version | Previous Version | Text Only | Print | Product List | Glossary Off
Versions: 1 2 3 4 5 6 7 8 9 10 11 12 13 14 15 16 17 18 19 20 21 22 23 24 25 26 27 28 29 30 31 32 33 34 35 36 37 38 39 40 41 42 43 44 45 46 47 48 49 50

000
ASUS43 KMPX 021110
RWRMN
WEATHER ROUNDUP FOR MINNESOTA
NATIONAL WEATHER SERVICE TWIN CITIES/CHANHASSEN MN
600 AM CDT THU OCT 02 2014


NOTE: "FAIR" INDICATES FEW OR NO CLOUDS BELOW 12,000 FEET WITH NO
SIGNIFICANT WEATHER AND/OR OBSTRUCTIONS TO VISIBILITY. N/A MEANS
CURRENT SKY AND/OR WEATHER CONDITIONS ARE NOT AVAILABLE.

MNZ060>063-068>070-021200-
   Twin Cities Metro

CITY           SKY/WX    TMP DP  RH WIND       PRES   REMARKS
TWIN CITIES    CLOUDY    58  56  93 N6        29.83S FOG
ST PAUL        CLOUDY    57  57 100 NW3       29.83F FOG
CRYSTAL        CLOUDY    59  55  87 N3        29.82S FOG
BLAINE         FOG       59  59 100 CALM      29.84R VSB 1/4
LAKEVILLE      CLOUDY    55  55 100 CALM      29.83S FOG
EDEN PRAIRIE   CLOUDY    57  56  96 N5        29.82S FOG
SOUTH ST PAUL  CLOUDY    58  56  96 CALM      29.82F FOG
LAKE ELMO      CLOUDY    55  55 100 CALM      29.84S FOG
$$
MNZ001>005-007-008-013>017-022>024-027-028-021200-
   Northwest Minnesota

CITY           SKY/WX    TMP DP  RH WIND       PRES   REMARKS
BEMIDJI        PTCLDY    50  48  94 SW6       29.81S
HALLOCK        MOCLDY    48  46  93 W5        29.77S
ROSEAU         PTCLDY    48  45  87 SW5       29.77R
WARROAD        PTCLDY    48  45  87 SW5       29.77R
THIEF RVR FALL PTCLDY    48  45  87 SW6       29.81R
CROOKSTON      MOCLDY    48  46  93 W3        29.82R
FOSSTON        CLEAR     45  43  93 CALM      29.82R
DETROIT LAKES  MOCLDY    50  46  87 W5        29.84S
PARK RAPIDS    CLEAR     47  46  97 CALM      29.82F
MAHNOMEN       FAIR      44  43  98 S3        29.82S
$$
MNZ006-009>011-018-025>026-021200-
   North Central Minnesota

CITY           SKY/WX    TMP DP  RH WIND       PRES   REMARKS
BAUDETTE       CLEAR     49  48  97 CALM      29.76S
FLAG ISLAND    PTCLDY    50  48  93 SW9       29.73S
INTL FALLS     CLOUDY    52  50  93 SW3       29.77S
WASKISH        CLOUDY    55  52  88 CALM      29.79R
BIG FORK       CLOUDY    52  50  93 S3        29.81R FOG
LONGVILLE      CLOUDY    46  46 100 CALM      29.83R FOG
GRAND RAPIDS   CLOUDY   N/A N/A N/A S6        29.83R
CRANE LAKE     CLOUDY    52  52 100 CALM      29.80S
ORR            MOCLDY    52  48  87 CALM      29.78R FOG
COOK           CLOUDY    54  52  94 SW5       29.81R FOG
WALKER         FAIR      50  48  93 W3        29.81F
$$
MNZ012-019>021-037-021200-
   Northeast Minnesota

CITY           SKY/WX    TMP DP  RH WIND       PRES   REMARKS
DULUTH         CLOUDY    52  50  93 W3        29.83S FOG
ELY            CLOUDY    52  50  93 S5        29.81S FOG
HIBBING        CLOUDY    54  51  90 SW3       29.83R
EVELETH        CLOUDY    52  52 100 CALM      29.83R FOG
DULUTH HARBOR  CLOUDY    55  54  94 SW5       29.84R
TWO HARBORS    CLOUDY    52  46  82 CALM      29.81F
SILVER BAY     PTCLDY    50  50 100 CALM      29.81F FOG
GRAND MARAIS     N/A     51  50  96 CALM      29.83R
G MARAIS ARPRT FOG       48  45  87 CALM      29.84R VSB<1/4
$$
MNZ029>031-032-039>041-046>048-054>057-064-021200-
   West Central Minnesota

CITY           SKY/WX    TMP DP  RH WIND       PRES   REMARKS
FERGUS FALLS   MOCLDY    48  46  93 CALM      29.85S
WHEATON        CLOUDY    48  46  93 W5        29.88R
MORRIS         MOCLDY    46  45  93 NW5       29.85R
ALEXANDRIA     PTCLDY    50  48  93 NW5       29.85S
ELBOW LAKE     FAIR      48  47  97 NW5       29.84F
WADENA         PTCLDY    48  46  93 W5        29.83R
GLENWOOD       PTCLDY    46  46 100 CALM      29.85S
APPLETON       CLOUDY    48  46  93 CALM      29.85R
BENSON         MOCLDY    43  43 100 CALM      29.85S
ORTONVILLE     CLOUDY    52  46  82 NW5       29.86R
MADISON        CLOUDY    52  48  87 NW5       29.86S
WILLMAR        FAIR      48  46  93 NW5       29.86R
$$
MNZ033>034-036-042>043-049>051-058-059-021200-
   Central Minnesota

CITY           SKY/WX    TMP DP  RH WIND       PRES   REMARKS
ST CLOUD       CLOUDY    55  53  93 CALM      29.84S FOG
SAUK CENTRE    FAIR      41  41 100 NW3       29.84F FOG
PAYNESVILLE    PTCLDY    45  45 100 S3        29.85R FOG
AITKIN         CLOUDY    55  50  82 CALM      29.82S HAZE
PINE RIVER     FOG       46  46 100 CALM      29.87S VSB 1/4
BRAINERD       FOG       50  50 100 SW3       29.84F VSB 1
STAPLES        CLEAR     43  43 100 CALM      29.83F FOG
LONG PRAIRIE   FOG       43  43 100 CALM      29.85S VSB 3/4
LITTLE FALLS   FOG       50  46  87 CALM      29.83F VSB 1/4
LITCHFIELD     FOG       52  52 100 CALM      29.85S VSB 1/4
BUFFALO        CLOUDY    55  52  89 CALM      29.84F FOG
MAPLE LAKE     CLOUDY    55  55  98 CALM      29.85S FOG
$$
MNZ037-044-045-052-053-021200-
   East Central Minnesota

CITY           SKY/WX    TMP DP  RH WIND       PRES   REMARKS
PRINCETON      CLOUDY    55  54  94 CALM      29.85S
MORA           CLOUDY    54  52  94 CALM      29.86S FOG
CAMBRIDGE      CLOUDY    55  48  76 CALM      29.83S HAZE
RUSH CITY      LGT RAIN  54  53  97 CALM      29.84F
MOOSE LAKE     CLOUDY    52  52 100 CALM      29.83R FOG
HINCKLEY       CLOUDY    54  54 100 CALM      29.84S FOG
CLOQUET        CLOUDY    52  52 100 CALM      29.84R FOG
MCGREGOR       CLOUDY    54  52  94 CALM      29.84R
$$
MNZ071>073-080-081-089-090-097-098-021200-
   Southwest Minnesota

CITY           SKY/WX    TMP DP  RH WIND       PRES   REMARKS
MONTEVIDEO     CLOUDY    48  46  93 N5        29.86S
GRANITE FALLS  CLOUDY    49  48  95 NW6       29.86S
CANBY          CLOUDY    51  48  91 W6        29.87S
MARSHALL       CLOUDY    50  45  81 NW9       29.84S
REDWOOD FALLS  MOCLDY    50  49  96 CALM      29.84S
OLIVIA         MOCLDY    50  46  87 NW5       29.84S
PIPESTONE      CLOUDY    52  48  87 CALM      29.86R
WINDOM         PTCLDY    52  50  93 N9        29.84R
WORTHINGTON    MOCLDY    50  48  93 N8        29.84S
JACKSON        MOCLDY    54  52  94 VRB6      29.83S
TRACY          MOCLDY    52  49  89 NW6       29.86R
SLAYTON        CLOUDY    51  49  92 CALM      29.87R
$$
MNZ065>067-074>077-082>085-091>093-021200-
   South Central Minnesota

CITY           SKY/WX    TMP DP  RH WIND       PRES   REMARKS
MANKATO        CLOUDY    57  54  88 NE6       29.82S VSB 1
NEW ULM        FOG       52  52 100 CALM      29.83S VSB 1/4
ST JAMES       CLOUDY    57  55  94 NW7       29.84R FOG
FAIRMONT       CLOUDY    57  55  94 N7        29.81F
GLENCOE        CLOUDY    56  56 100 CALM      29.84R FOG
FARIBAULT      FOG       57  57 100 CALM      29.83S VSB 1/2
OWATONNA       CLOUDY    57  55  94 E3        29.83S FOG
WASECA         FOG       55  52  88 CALM      29.84S VSB 1
ALBERT LEA     FOG       55  54  94 CALM      29.82S VSB<1/4
$$
MNZ078>079-086>088-094>096-021200-
   Southeast Minnesota

CITY           SKY/WX    TMP DP  RH WIND       PRES   REMARKS
ROCHESTER      FOG       55  54  96 CALM      29.84R VSB 1/4
RED WING       CLOUDY    54  54 100 CALM      29.83S FOG
STANTON        CLOUDY    58  56  94 CALM      29.81F FOG
DODGE CENTER   FOG       55  54  94 N6        29.83S VSB 1
WINONA         FOG       54  54 100 NW5       29.83R VSB 1
AUSTIN         FOG       55  55 100 CALM      29.82S VSB 1/4
PRESTON        FOG       54  53  98 CALM      29.84S VSB 1/4
$$
ABBREVIATIONS USED IN REMARKS
   TC - TEMPERATURES IN CELSIUS
  WCI - WIND CHILL INDEX
   HX - HEAT INDEX
  VSB - VISIBILITY
$$



USA.gov is the U.S. government's official web portal to all federal, state and local government web resources and services.